Belize, Belize

7:41 AM CST on July 23, 2017 (GMT -0600)
Philip S W Goldson International

Weather History for MZBZ - July, 2014

Change the Weather History Date:

Friday, July 11, 2014

  Actual Average Record
Temperature  
Mean Temperature 85 °F -  
Max Temperature 90 °F 88 °F 90 °F (2014)
Min Temperature 80 °F 76 °F 70 °F (2013)
Cooling Degree Days 20    
Growing Degree Days 35 (Base 50)    
Moisture  
Dew Point 76 °F    
Average Humidity 70    
Maximum Humidity 84    
Minimum Humidity 58    
Precipitation  
Precipitation 0.00 in 0.29 in - ()
Sea Level Pressure  
Sea Level Pressure 29.98 in    
Wind  
Wind Speed 9 mph ()    
Max Wind Speed 14 mph    
Max Gust Speed 25 mph    
Visibility 8.3 miles    
Events Rain    
Averages and records for this station are not official NWS values.
T = Trace of Precipitation, MM = Missing Value Source: Averaged Metar Reports

Daily Weather History Graph

Daily Weather History Graph

Search for Another Location

Airport or City:

Trip Planner

Search our weather history database for the weather conditions in past years. The results will help you decide how hot, cold, wet, or windy it might be!

Date:

Astronomy

Jul. 11, 2014 Rise Set
Actual Time 5:25 AM CST 6:31 PM CST
Civil Twilight 5:01 AM CST 6:55 PM CST
Nautical Twilight 4:33 AM CST 7:23 PM CST
Astronomical Twilight 4:04 AM CST 7:52 PM CST
Moon 5:51 PM CST (7/11) 4:29 AM CST (7/11)
Length of Visible Light 13h 54m
Length of Day
13h 06m
Waxing Gibbous, 99% of the Moon is Illuminated
Jul 11
Waxing Gibbous
Jul 12
Full
Jul 18
Last Quarter
Jul 26
New
Aug 3
First Quarter

Hourly Weather History & Observations

Time (CST) Temp. Heat Index Dew Point Humidity Pressure Visibility Wind Dir Wind Speed Gust Speed Precip Events Conditions
12:00 AM 83 °F - 75 °F 71% 29.98 in 12 mi East 11.5 mph - -   Mostly Cloudy
3:00 AM 82 °F - 76 °F 78% 29.94 in 12 mi East 6.9 mph - -   Partly Cloudy
5:00 AM 80.6 °F 86.2 °F 75.2 °F 84% 29.93 in 6.2 mi ESE 4.6 mph - N/A   Partly Cloudy
6:00 AM 82 °F - 76 °F 76% 29.96 in 12 mi East 6.9 mph - -   Partly Cloudy
6:00 AM 82.4 °F 89.5 °F 75.2 °F 79% 29.96 in 6.2 mi East 6.9 mph - N/A   Scattered Clouds
7:00 AM 82.4 °F 89.5 °F 75.2 °F 79% 29.98 in 6.2 mi East 8.1 mph - N/A   Scattered Clouds
8:00 AM 84.2 °F 94.1 °F 77.0 °F 79% 30.00 in 6.2 mi ESE 3.5 mph - N/A Rain Light Rain Showers
9:00 AM 87 °F - 76 °F 62% 30.02 in 12 mi East 10.4 mph - -  
9:00 AM 87.8 °F 97.6 °F 75.2 °F 66% 30.01 in 6.2 mi East 10.4 mph - N/A   Mostly Cloudy
10:00 AM 87.8 °F 99.7 °F 77.0 °F 70% 30.01 in 6.2 mi ENE 12.7 mph - N/A   Mostly Cloudy
11:00 AM 89.6 °F 102.2 °F 77.0 °F 66% 30.00 in 6.2 mi East 12.7 mph - N/A   Scattered Clouds
12:00 PM 89 °F - 76 °F 58% 30.01 in 12 mi East 12.7 mph - -   Partly Cloudy
12:00 PM 89.6 °F 102.2 °F 77.0 °F 66% 30.00 in 6.2 mi East 12.7 mph - N/A   Partly Cloudy
1:00 PM 89.6 °F 102.2 °F 77.0 °F 66% 29.99 in 6.2 mi ENE 13.8 mph - N/A   Scattered Clouds
2:00 PM 89.6 °F 102.2 °F 77.0 °F 66% 29.97 in 6.2 mi ENE 13.8 mph - N/A   Scattered Clouds
3:00 PM 88 °F - 76 °F 60% 29.95 in 12 mi East 11.5 mph - -   Partly Cloudy
3:00 PM 87.8 °F 99.7 °F 77.0 °F 70% 29.94 in 6.2 mi East 11.5 mph - N/A   Scattered Clouds
4:00 PM 87.8 °F 99.7 °F 77.0 °F 70% 29.95 in 6.2 mi East 10.4 mph - N/A   Scattered Clouds
5:00 PM 87.8 °F 97.6 °F 75.2 °F 66% 29.96 in 6.2 mi ENE 13.8 mph - N/A   Mostly Cloudy
6:00 PM 86 °F - 75 °F 63% 29.96 in 12 mi ENE 13.8 mph - -   Mostly Cloudy
6:00 PM 86.0 °F 95.1 °F 75.2 °F 70% 29.96 in 6.2 mi ENE 13.8 mph 25.3 mph N/A   Mostly Cloudy
9:00 PM 83 °F - 74 °F 67% 30.00 in 12 mi East 11.5 mph - -   Mostly Cloudy